This demonstration page uses our WeatherBlox Daily Observations layout. Learn more.

Left ArrowRight Arrow

39.92423, -83.80882

Hourly Observations for February 20, 2021

Temp ( °F °C ) Dew Point ( °F °C ) Humidity (%) Winds ( mph kmh ) Pressure ( in mb ) Visibility ( mi km ) Precip ( " mm )
12:56 am 00:56 Mostly Cloudy 11 -11.7 6 -14.4 81 81 SW 6 9 30.38 1029 10 16 0.00 0.00
1:56 am 01:56 Mostly Cloudy 7 -13.9 4 -15.6 87 87 SW 6 9 30.38 1029 10 16 0.00 0.00
2:56 am 02:56 Cloudy 11 -11.7 7 -13.9 84 84 WSW 3 6 30.37 1029 10 16 0.00 0.00
3:56 am 03:56 Cloudy with Light Snow 15 -9.4 10 -12.2 80 80 W 8 13 30.37 1028 9 14 0.00 0.00
4:56 am 04:56 Cloudy with Light Snow 14 -10 10 -12.2 84 84 WSW 7 11 30.37 1029 9 14 0.00 0.00
5:43 am 05:43 Cloudy with Light Snow 16 -9 10 -12 79 79 WSW 8 13 30.42 1030 9 14 0.00 0.00
5:56 am 05:56 Cloudy with Light Snow 15 -9.4 11 -11.7 84 84 WSW 8 13 30.38 1029 7 11 0.00 0.00
6:33 am 06:33 Cloudy with Light Snow 16 -9 10 -12 79 79 WSW 8 13 30.42 1030 6 10 0.00 0.00
6:56 am 06:56 Cloudy with Light Snow 14 -10 11 -11.7 88 88 WSW 8 13 30.39 1029 9 14 0.00 0.00
7:56 am 07:56 Cloudy with Light Snow 15 -9.4 12 -11.1 88 88 WSW 9 15 30.40 1030 6 10 0.00 0.00
8:56 am 08:56 Cloudy with Light Snow 16 -8.9 12 -11.1 84 84 WSW 6 9 30.43 1031 9 14 0.00 0.00
9:17 am 09:17 Mostly Cloudy with Light Snow 16 -9 10 -12 79 79 W 8 13 30.47 1032 8 13 0.00 0.00
9:43 am 09:43 Partly Cloudy 18 -8 12 -11 79 79 W 9 15 30.46 1032 9 14 0.00 0.00
9:56 am 09:56 Sunny 17 -8.3 12 -11.1 80 80 W 10 17 30.44 1031 9 14 0.00 0.00
10:56 am 10:56 Mostly Sunny 20 -6.7 14 -10 78 78 WSW 8 13 30.45 1031 9 14 0.00 0.00
11:56 am 11:56 Sunny 23 -5 15 -9.4 72 72 WSW 7 11 30.45 1031 9 14 0.00 0.00
12:56 pm 12:56 Mostly Cloudy 26 -3.3 15 -9.4 63 63 NW 9 15 30.43 1031 10 16 0.00 0.00
1:56 pm 13:56 Mostly Cloudy 26 -3.3 15 -9.4 63 63 WNW 13 20 30.43 1031 10 16 0.00 0.00
2:56 pm 14:56 Partly Cloudy 26 -3.3 14 -10 60 60 NW 12 19 30.44 1031 10 16 0.00 0.00
3:56 pm 15:56 Mostly Sunny 26 -3.3 13 -10.6 57 57 WNW 12 19 30.44 1031 10 16 0.00 0.00
4:56 pm 16:56 Sunny 25 -3.9 13 -10.6 60 60 NW 8 13 30.44 1031 10 16 0.00 0.00
5:56 pm 17:56 Sunny 22 -5.6 11 -11.7 63 63 NW 3 6 30.45 1031 10 16 0.00 0.00
6:56 pm 18:56 Clear 19 -7.2 12 -11.1 74 74 E 3 6 30.47 1032 10 16 0.00 0.00
7:56 pm 19:56 Clear 13 -10.6 8 -13.3 81 81 ESE 5 7 30.49 1032 10 16 0.00 0.00
8:56 pm 20:56 Clear 12 -11.1 8 -13.3 84 84 SE 7 11 30.48 1032 10 16 0.00 0.00
9:56 pm 21:56 Clear 12 -11.1 8 -13.3 84 84 SE 7 11 30.50 1033 10 16 0.00 0.00
10:56 pm 22:56 Clear 11 -11.7 7 -13.9 84 84 SE 8 13 30.50 1033 10 16 0.00 0.00
11:56 pm 23:56 Clear 13 -10.6 9 -12.8 84 84 SE 7 11 30.49 1033 10 16 0.00 0.00

Powered by AerisWeather